Simultaneous Nadir Overpasses (SNOs) Predictions

Prediction of SNOs between AQUA and METOP-A Satellite Orbit:

Table of predicted SNOs for the next 14.0 days since TLE Epoch: 3/6/2020
Index Date (AQUA) Time (AQUA) Lat,Lon (AQUA) SZA (AQUA ) Date (METOP-A) Time (METOP-A) Lat,Lon (METOP-A) SZA (METOP-A ) Distance(km) Time Diff (sec)
1 03/09/2020 15:13:16 75.94, -59.37 80.41 03/09/2020 15:12:04 75.94, -59.40 80.43 1.12 72
2 03/09/2020 16:02:43 -75.98, 108.15 99.57 03/09/2020 16:02:44 -76.01, 108.14 99.53 3.61 1
3 03/09/2020 16:52:11 76.03, -84.38 80.49 03/09/2020 16:53:23 76.06, -84.35 80.50 3.50 72
4 03/12/2020 10:47:30 75.96, 7.03 79.31 03/12/2020 10:46:27 75.94, 6.95 79.32 2.42 63
5 03/12/2020 11:36:57 -76.00, 174.55 100.66 03/12/2020 11:37:07 -76.01, 174.51 100.64 2.29 10
6 03/12/2020 12:26:31 76.34, -18.92 79.73 03/12/2020 12:27:40 76.34, -17.05 79.61 49.27 69
7 03/15/2020 06:21:43 75.98, 73.40 78.22 03/15/2020 06:20:48 75.99, 73.46 78.24 1.85 55
8 03/15/2020 07:11:10 -76.02,-119.09 101.75 03/15/2020 07:11:29 -76.02,-119.13 101.76 1.31 19
9 03/18/2020 01:55:56 75.97, 139.89 77.08 03/18/2020 01:55:11 75.99, 139.80 77.12 3.37 45
10 03/18/2020 02:45:24 -76.06, -52.74 102.83 03/18/2020 02:45:51 -76.06, -52.62 102.84 3.41 27




NCC Satellite Simultaneous Nadir Overpasses (SNOs) Prediction Service
